Time,TemperatureF,DewpointF,PressureIn,WindDirection,WindDirectionDegrees,WindSpeedMPH,WindSpeedGustMPH,Humidity,HourlyPrecipIn,Conditions,Clouds,dailyrainin,SoftwareType,DateUTC
2013-12-08 00:01:00,70.3,67.0,30.18,ENE,63,4.0,6.0,89,0.00,,,0.00,weatherlink.com 1.10,2013-12-08 05:01:00,
2013-12-08 00:16:00,69.9,67.0,30.18,ENE,63,3.0,4.0,90,0.00,,,0.00,weatherlink.com 1.10,2013-12-08 05:16:00,
2013-12-08 00:31:00,69.8,67.0,30.18,ENE,63,4.0,5.0,90,0.00,,,0.00,weatherlink.com 1.10,2013-12-08 05:31:00,
2013-12-08 00:46:00,69.6,67.0,30.17,ENE,62,3.0,6.0,90,0.00,,,0.00,weatherlink.com 1.10,2013-12-08 05:46:00,
2013-12-08 01:01:00,69.4,66.0,30.16,NE,41,5.0,6.0,90,0.00,,,0.00,weatherlink.com 1.10,2013-12-08 06:01:00,
2013-12-08 01:16:00,69.2,67.0,30.15,NE,45,5.0,6.0,91,0.00,,,0.00,weatherlink.com 1.10,2013-12-08 06:16:00,
2013-12-08 01:31:00,69.1,66.0,30.15,NE,51,7.0,8.0,91,0.00,,,0.00,weatherlink.com 1.10,2013-12-08 06:31:00,
2013-12-08 01:46:00,68.9,66.0,30.15,NE,53,6.0,8.0,91,0.00,,,0.00,weatherlink.com 1.10,2013-12-08 06:46:00,
2013-12-08 02:01:00,69.1,67.0,30.15,NE,55,5.0,6.0,92,0.00,,,0.00,weatherlink.com 1.10,2013-12-08 07:01:00,
2013-12-08 02:16:00,69.3,67.0,30.15,NE,55,5.0,6.0,92,0.00,,,0.00,weatherlink.com 1.10,2013-12-08 07:16:00,
2013-12-08 02:31:00,69.6,67.0,30.15,NE,55,5.0,7.0,92,0.00,,,0.00,weatherlink.com 1.10,2013-12-08 07:31:00,
2013-12-08 02:46:00,69.8,67.0,30.14,NE,55,5.0,7.0,92,0.00,,,0.00,weatherlink.com 1.10,2013-12-08 07:46:00,
2013-12-08 03:01:00,70.3,68.0,30.14,ENE,59,7.0,9.0,93,0.00,,,0.00,weatherlink.com 1.10,2013-12-08 08:01:00,
2013-12-08 03:16:00,70.9,69.0,30.14,NE,49,7.0,10.0,93,0.00,,,0.00,weatherlink.com 1.10,2013-12-08 08:16:00,
2013-12-08 03:31:00,71.1,69.0,30.14,ENE,60,7.0,14.0,92,0.00,,,0.00,weatherlink.com 1.10,2013-12-08 08:31:00,
2013-12-08 03:46:00,71.0,69.0,30.14,ENE,59,7.0,9.0,92,0.00,,,0.00,weatherlink.com 1.10,2013-12-08 08:46:00,
2013-12-08 04:01:00,71.0,69.0,30.14,NE,55,7.0,10.0,92,0.00,,,0.00,weatherlink.com 1.10,2013-12-08 09:01:00,
2013-12-08 04:16:00,71.2,69.0,30.14,ENE,60,7.0,10.0,92,0.00,,,0.00,weatherlink.com 1.10,2013-12-08 09:16:00,
2013-12-08 04:31:00,71.3,69.0,30.14,ENE,74,5.0,10.0,92,0.00,,,0.00,weatherlink.com 1.10,2013-12-08 09:31:00,
2013-12-08 04:46:00,71.3,69.0,30.14,ENE,72,7.0,11.0,92,0.00,,,0.00,weatherlink.com 1.10,2013-12-08 09:46:00,
2013-12-08 05:01:00,71.3,69.0,30.14,ENE,58,7.0,11.0,92,0.00,,,0.00,weatherlink.com 1.10,2013-12-08 10:01:00,
2013-12-08 05:16:00,71.2,69.0,30.14,ENE,65,4.0,10.0,92,0.00,,,0.00,weatherlink.com 1.10,2013-12-08 10:16:00,
2013-12-08 05:31:00,71.1,69.0,30.15,ENE,62,6.0,11.0,92,0.00,,,0.00,weatherlink.com 1.10,2013-12-08 10:31:00,
2013-12-08 05:46:00,71.2,69.0,30.15,ENE,62,9.0,10.0,92,0.00,,,0.00,weatherlink.com 1.10,2013-12-08 10:46:00,
2013-12-08 06:02:00,71.1,69.0,30.16,NE,45,6.0,10.0,92,0.00,,,0.00,weatherlink.com 1.10,2013-12-08 11:02:00,
2013-12-08 06:17:00,71.1,69.0,30.16,ENE,60,8.0,10.0,92,0.00,,,0.00,weatherlink.com 1.10,2013-12-08 11:17:00,
2013-12-08 06:32:00,70.9,69.0,30.17,ENE,60,8.0,12.0,93,0.00,,,0.00,weatherlink.com 1.10,2013-12-08 11:32:00,
2013-12-08 06:47:00,71.0,69.0,30.17,ENE,64,7.0,10.0,93,0.00,,,0.00,weatherlink.com 1.10,2013-12-08 11:47:00,
2013-12-08 07:02:00,71.0,69.0,30.17,NE,56,8.0,10.0,93,0.00,,,0.00,weatherlink.com 1.10,2013-12-08 12:02:00,
2013-12-08 07:17:00,70.9,69.0,30.18,ENE,65,6.0,8.0,93,0.00,,,0.00,weatherlink.com 1.10,2013-12-08 12:17:00,
2013-12-08 07:32:00,71.1,69.0,30.18,ENE,57,6.0,9.0,93,0.00,,,0.00,weatherlink.com 1.10,2013-12-08 12:32:00,
2013-12-08 07:47:00,71.3,69.0,30.18,ENE,65,5.0,8.0,93,0.00,,,0.00,weatherlink.com 1.10,2013-12-08 12:47:00,
2013-12-08 08:02:00,71.7,70.0,30.18,NE,47,1.0,10.0,93,0.00,,,0.00,weatherlink.com 1.10,2013-12-08 13:02:00,
2013-12-08 08:17:00,71.9,70.0,30.19,East,87,2.0,10.0,93,0.00,,,0.00,weatherlink.com 1.10,2013-12-08 13:17:00,
2013-12-08 08:32:00,72.4,70.0,30.19,ENE,62,7.0,10.0,93,0.00,,,0.00,weatherlink.com 1.10,2013-12-08 13:32:00,
2013-12-08 08:47:00,73.4,71.0,30.20,ENE,68,5.0,8.0,92,0.00,,,0.00,weatherlink.com 1.10,2013-12-08 13:47:00,
2013-12-08 09:02:00,74.4,72.0,30.20,East,86,1.0,7.0,91,0.00,,,0.00,weatherlink.com 1.10,2013-12-08 14:02:00,
2013-12-08 09:17:00,75.6,73.0,30.20,ESE,122,2.0,10.0,90,0.00,,,0.00,weatherlink.com 1.10,2013-12-08 14:17:00,
2013-12-08 09:32:00,76.6,73.0,30.20,SSE,147,4.0,15.0,87,0.00,,,0.00,weatherlink.com 1.10,2013-12-08 14:32:00,
2013-12-08 09:47:00,77.5,72.0,30.19,ENE,70,5.0,15.0,84,0.00,,,0.00,weatherlink.com 1.10,2013-12-08 14:47:00,
2013-12-08 10:02:00,78.8,73.0,30.19,East,81,6.0,16.0,81,0.00,,,0.00,weatherlink.com 1.10,2013-12-08 15:02:00,
2013-12-08 10:17:00,79.8,73.0,30.19,NE,51,10.0,14.0,79,0.00,,,0.00,weatherlink.com 1.10,2013-12-08 15:17:00,
2013-12-08 10:32:00,80.6,72.0,30.19,ESE,106,9.0,15.0,75,0.00,,,0.00,weatherlink.com 1.10,2013-12-08 15:32:00,
2013-12-08 10:47:00,81.5,72.0,30.19,NNE,27,5.0,12.0,73,0.00,,,0.00,weatherlink.com 1.10,2013-12-08 15:47:00,
2013-12-08 11:02:00,82.6,71.0,30.19,SW,217,8.0,17.0,69,0.00,,,0.00,weatherlink.com 1.10,2013-12-08 16:02:00,
2013-12-08 11:17:00,83.2,71.0,30.19,SE,126,4.0,13.0,66,0.00,,,0.00,weatherlink.com 1.10,2013-12-08 16:17:00,
2013-12-08 11:32:00,84.2,71.0,30.19,SE,139,10.0,14.0,65,0.00,,,0.00,weatherlink.com 1.10,2013-12-08 16:32:00,
2013-12-08 11:47:00,84.0,71.0,30.18,ESE,122,3.0,15.0,64,0.00,,,0.00,weatherlink.com 1.10,2013-12-08 16:47:00,
2013-12-08 12:02:00,84.9,71.0,30.17,SSE,147,15.0,17.0,63,0.00,,,0.00,weatherlink.com 1.10,2013-12-08 17:02:00,
2013-12-08 12:18:00,85.4,70.0,30.16,ENE,57,7.0,15.0,61,0.00,,,0.00,weatherlink.com 1.10,2013-12-08 17:18:00,
2013-12-08 12:33:00,84.5,70.0,30.15,ESE,114,4.0,13.0,62,0.00,,,0.00,weatherlink.com 1.10,2013-12-08 17:33:00,
2013-12-08 12:48:00,85.1,70.0,30.14,ENE,66,5.0,13.0,61,0.00,,,0.00,weatherlink.com 1.10,2013-12-08 17:48:00,
2013-12-08 13:03:00,85.9,70.0,30.14,ENE,58,6.0,13.0,59,0.00,,,0.00,weatherlink.com 1.10,2013-12-08 18:03:00,
2013-12-08 13:18:00,86.9,70.0,30.13,ENE,73,3.0,15.0,58,0.00,,,0.00,weatherlink.com 1.10,2013-12-08 18:18:00,
2013-12-08 13:33:00,87.9,70.0,30.12,SSE,151,11.0,14.0,55,0.00,,,0.00,weatherlink.com 1.10,2013-12-08 18:33:00,
2013-12-08 13:48:00,88.6,71.0,30.11,ENE,71,8.0,13.0,56,0.00,,,0.00,weatherlink.com 1.10,2013-12-08 18:48:00,
2013-12-08 14:03:00,89.2,70.0,30.11,ESE,114,9.0,13.0,53,0.00,,,0.00,weatherlink.com 1.10,2013-12-08 19:03:00,
2013-12-08 14:18:00,87.9,69.0,30.10,East,90,7.0,13.0,53,0.00,,,0.00,weatherlink.com 1.10,2013-12-08 19:18:00,
2013-12-08 14:33:00,89.1,71.0,30.10,NE,36,5.0,13.0,55,0.00,,,0.00,weatherlink.com 1.10,2013-12-08 19:33:00,
2013-12-08 14:48:00,90.3,71.0,30.10,NE,56,10.0,12.0,54,0.00,,,0.00,weatherlink.com 1.10,2013-12-08 19:48:00,
2013-12-08 15:03:00,90.8,71.0,30.09,SE,135,8.0,9.0,52,0.00,,,0.00,weatherlink.com 1.10,2013-12-08 20:03:00,
2013-12-08 15:18:00,90.1,69.0,30.09,East,93,9.0,17.0,50,0.00,,,0.00,weatherlink.com 1.10,2013-12-08 20:18:00,
2013-12-08 15:33:00,88.0,68.0,30.09,SE,134,2.0,10.0,52,0.00,,,0.00,weatherlink.com 1.10,2013-12-08 20:33:00,
2013-12-08 15:48:00,87.6,69.0,30.09,SE,134,7.0,17.0,54,0.00,,,0.00,weatherlink.com 1.10,2013-12-08 20:48:00,
2013-12-08 16:03:00,86.8,69.0,30.10,East,79,1.0,15.0,56,0.00,,,0.00,weatherlink.com 1.10,2013-12-08 21:03:00,
2013-12-08 16:18:00,85.4,71.0,30.09,South,180,5.0,12.0,63,0.00,,,0.00,weatherlink.com 1.10,2013-12-08 21:18:00,
2013-12-08 16:33:00,83.5,72.0,30.09,SSW,210,5.0,8.0,68,0.00,,,0.00,weatherlink.com 1.10,2013-12-08 21:33:00,
2013-12-08 16:48:00,82.3,72.0,30.10,South,171,9.0,13.0,70,0.00,,,0.00,weatherlink.com 1.10,2013-12-08 21:48:00,
2013-12-08 17:03:00,81.4,72.0,30.10,South,175,5.0,11.0,72,0.00,,,0.00,weatherlink.com 1.10,2013-12-08 22:03:00,
2013-12-08 17:18:00,80.9,71.0,30.10,South,175,9.0,11.0,71,0.00,,,0.00,weatherlink.com 1.10,2013-12-08 22:18:00,
2013-12-08 17:33:00,80.3,71.0,30.11,SSE,166,7.0,11.0,73,0.00,,,0.00,weatherlink.com 1.10,2013-12-08 22:33:00,
2013-12-08 17:48:00,79.8,71.0,30.11,SSE,160,2.0,8.0,74,0.00,,,0.00,weatherlink.com 1.10,2013-12-08 22:48:00,
2013-12-08 18:03:00,79.1,71.0,30.11,SSE,166,3.0,6.0,77,0.00,,,0.00,weatherlink.com 1.10,2013-12-08 23:03:00,
2013-12-08 18:18:00,78.3,71.0,30.12,SSE,166,5.0,6.0,79,0.00,,,0.00,weatherlink.com 1.10,2013-12-08 23:18:00,
2013-12-08 18:33:00,78.0,71.0,30.12,SE,128,0.0,5.0,78,0.00,,,0.00,weatherlink.com 1.10,2013-12-08 23:33:00,
2013-12-08 18:48:00,78.1,71.0,30.12,SE,126,0.0,3.0,78,0.00,,,0.00,weatherlink.com 1.10,2013-12-08 23:48:00,
2013-12-08 19:03:00,77.9,70.0,30.12,ESE,122,3.0,5.0,77,0.00,,,0.00,weatherlink.com 1.10,2013-12-09 00:03:00,
2013-12-08 19:18:00,77.3,69.0,30.13,ESE,120,3.0,4.0,76,0.00,,,0.00,weatherlink.com 1.10,2013-12-09 00:18:00,
2013-12-08 19:33:00,76.9,69.0,30.14,ESE,120,2.0,3.0,76,0.00,,,0.00,weatherlink.com 1.10,2013-12-09 00:33:00,
2013-12-08 19:48:00,76.3,68.0,30.14,ESE,118,1.0,5.0,76,0.00,,,0.00,weatherlink.com 1.10,2013-12-09 00:48:00,
2013-12-08 20:03:00,75.8,68.0,30.14,ESE,118,2.0,3.0,76,0.00,,,0.00,weatherlink.com 1.10,2013-12-09 01:03:00,
2013-12-08 20:18:00,75.2,68.0,30.14,ESE,117,4.0,4.0,77,0.00,,,0.00,weatherlink.com 1.10,2013-12-09 01:18:00,
2013-12-08 20:33:00,74.7,67.0,30.15,ESE,107,2.0,7.0,78,0.00,,,0.00,weatherlink.com 1.10,2013-12-09 01:33:00,
2013-12-08 20:48:00,74.4,67.0,30.15,East,99,7.0,8.0,78,0.00,,,0.00,weatherlink.com 1.10,2013-12-09 01:48:00,
2013-12-08 21:03:00,74.2,67.0,30.15,ENE,74,3.0,7.0,79,0.00,,,0.00,weatherlink.com 1.10,2013-12-09 02:03:00,
2013-12-08 21:18:00,74.1,68.0,30.15,North,4,2.0,9.0,80,0.00,,,0.00,weatherlink.com 1.10,2013-12-09 02:18:00,
2013-12-08 21:33:00,74.0,68.0,30.15,East,100,3.0,7.0,81,0.00,,,0.00,weatherlink.com 1.10,2013-12-09 02:33:00,
2013-12-08 21:48:00,73.8,68.0,30.16,East,95,2.0,6.0,81,0.00,,,0.00,weatherlink.com 1.10,2013-12-09 02:48:00,
2013-12-08 22:03:00,73.6,68.0,30.16,ENE,72,4.0,6.0,82,0.00,,,0.00,weatherlink.com 1.10,2013-12-09 03:03:00,
2013-12-08 22:18:00,73.4,68.0,30.15,East,87,1.0,5.0,83,0.00,,,0.00,weatherlink.com 1.10,2013-12-09 03:18:00,
2013-12-08 22:33:00,73.2,68.0,30.15,ENE,77,5.0,6.0,83,0.00,,,0.00,weatherlink.com 1.10,2013-12-09 03:33:00,
2013-12-08 22:48:00,72.8,68.0,30.15,ENE,66,3.0,7.0,84,0.00,,,0.00,weatherlink.com 1.10,2013-12-09 03:48:00,
2013-12-08 23:03:00,72.6,68.0,30.15,ENE,65,3.0,6.0,85,0.00,,,0.00,weatherlink.com 1.10,2013-12-09 04:03:00,
2013-12-08 23:18:00,72.3,68.0,30.15,ENE,72,4.0,7.0,86,0.00,,,0.00,weatherlink.com 1.10,2013-12-09 04:18:00,
2013-12-08 23:33:00,72.1,68.0,30.15,ENE,72,2.0,5.0,86,0.00,,,0.00,weatherlink.com 1.10,2013-12-09 04:33:00,
2013-12-08 23:48:00,71.6,67.0,30.15,ENE,72,4.0,5.0,86,0.00,,,0.00,weatherlink.com 1.10,2013-12-09 04:48:00,